Tokyo Intl current weather conditions

sailwx.info

Wind from 310 at 12 knots

Air temperature 4.0° C
Dewpoint -7.0° C

Last reported at 2015-Feb-27 19:30 UTC.
Time now 2015-Feb-27 21:16 UTC

Location: N 35°33' E 139°47'.
View on Google Maps.

See reports from other nearby stations

  
Tides and Currents Weather Stations Pressure Air Temp Water Temp Dewpoint Dewpoint Depression Visibility Wind Speed Wind Dir Waves Ship Positions
date/time (UTC)wind fromknots sea level pressurealtimeterstation pressurevisibilityair tempwater tempwave heightnotes
2015-Feb-27 20:30 310 15 4.0
2015-Feb-27 20:00 310 14 4.0
2015-Feb-27 19:30 310 12 4.0
2015-Feb-27 19:00 320 12 5.0
2015-Feb-27 18:30 310 12 5.0
2015-Feb-27 18:00 320 12 5.0
2015-Feb-27 17:30 330 12 6.0
2015-Feb-27 17:00 320 16 6.0
2015-Feb-27 16:30 310 20 6.0
2015-Feb-27 16:00 320 19 5.4 6.0
2015-Feb-27 15:30 320 15 gusting 25 5.4 7.0
2015-Feb-27 15:00 320 22 5.4 7.0
2015-Feb-27 14:30 320 20 5.4 7.0
2015-Feb-27 14:00 320 23 gusting 33 5.4 7.0
2015-Feb-27 13:30 320 20 gusting 34 5.4 7.0
2015-Feb-27 13:00 320 20 gusting 31 5.4 7.0
2015-Feb-27 12:34 330 19 gusting 29 5.4 7.0
2015-Feb-27 12:30 330 20 5.4 7.0
2015-Feb-27 12:03 330 20 gusting 30 5.4 7.0
2015-Feb-27 12:00 330 20 5.4 7.0
2015-Feb-27 11:30 330 24 gusting 35 5.4 7.0
2015-Feb-27 11:00 330 25 gusting 39 5.4 8.0
2015-Feb-27 10:42 340 23 gusting 33 5.4 8.0
2015-Feb-27 10:30 340 22 5.4 8.0
2015-Feb-27 10:00 330 22 gusting 35 5.4 8.0
2015-Feb-27 09:35 330 25 gusting 37 5.4 8.0
2015-Feb-27 09:30 330 24 5.4 8.0
2015-Feb-27 09:00 330 25 gusting 36 5.4 9.0
2015-Feb-27 08:30 350 17 gusting 27 5.4 9.0
2015-Feb-27 08:20 340 18 gusting 27 5.4 9.0
2015-Feb-27 08:00 360 20 5.410.0
2015-Feb-27 07:30 360 20 5.410.0
2015-Feb-27 07:15 360 17 gusting 27 5.411.0
2015-Feb-27 07:00 360 19 5.411.0
2015-Feb-27 06:30 350 17 5.412.0
2015-Feb-27 06:00 360 15 5.412.0
2015-Feb-27 05:30 020 19 5.412.0
2015-Feb-27 05:00 010 11 5.413.0
2015-Feb-27 04:30 010 13 5.412.0
2015-Feb-27 04:00 050 10 5.413.0
2015-Feb-27 03:30 020 10 5.412.0
2015-Feb-27 03:00 010 8 5.412.0
2015-Feb-27 02:30 030 9 5.412.0
2015-Feb-27 02:00 040 6 5.411.0
2015-Feb-27 01:30 010 7 5.411.0
2015-Feb-27 01:00 010 6 5.411.0
2015-Feb-27 00:30 010 8 5.411.0
2015-Feb-27 00:00 010 5 5.410.0
2015-Feb-26 23:30 300 7 5.4 9.0
2015-Feb-26 23:00 300 6 5.4 8.0
2015-Feb-26 22:30 260 6 5.4 7.0
2015-Feb-26 22:00 310 6 5.4 7.0
2015-Feb-26 21:30 340 4 5.4 7.0
2015-Feb-26 21:00 260 5 5.4 6.0
2015-Feb-26 20:30 260 5 5.4 6.0
2015-Feb-26 20:00 200 3 5.4 6.0
2015-Feb-26 19:30 5.4 7.0
2015-Feb-26 19:00 310 3 5.4 6.0 Fog in the vicinity.
2015-Feb-26 18:30 5.4 6.0 Fog in the vicinity.
2015-Feb-26 18:00 300 1 5.4 6.0
2015-Feb-26 17:30 280 2 5.4 6.0
2015-Feb-26 17:00 270 3 5.4 6.0
2015-Feb-26 16:30 250 4 5.4 5.0
2015-Feb-26 16:00 250 5 5.4 6.0
2015-Feb-26 15:30 280 4 5.4 6.0
2015-Feb-26 15:00 300 4 5.4 6.0
2015-Feb-26 14:30 330 5 5.4 6.0
2015-Feb-26 14:21 330 7 4.9 7.0
2015-Feb-26 14:00 330 10 4.9 7.0
2015-Feb-26 13:49 330 9 3.2 7.0
2015-Feb-26 13:30 320 9 2.7 6.0 Mist.
2015-Feb-26 13:21 330 9 2.7 7.0 Mist.
2015-Feb-26 13:00 340 11 3.8 7.0
2015-Feb-26 12:30 350 11 4.3 7.0
2015-Feb-26 12:13 010 9 4.3 7.0
2015-Feb-26 12:00 360 8 4.3 7.0
2015-Feb-26 11:42 010 8 4.3 7.0 Light rain.
2015-Feb-26 11:30 010 8 4.3 7.0 Light rain.
2015-Feb-26 11:12 360 9 3.8 7.0 Light rain.
2015-Feb-26 11:00 350 12 3.8 7.0 Rain.
2015-Feb-26 10:30 340 13 3.8 7.0 Light rain.
2015-Feb-26 10:18 340 12 3.8 7.0 Light rain.
2015-Feb-26 10:00 330 11 3.2 7.0 Rain.
2015-Feb-26 09:30 360 10 3.8 7.0 Light rain.
2015-Feb-26 09:00 360 8 3.8 7.0 Light rain.
2015-Feb-26 08:49 010 7 3.8 7.0 Light rain.
2015-Feb-26 08:30 350 9 3.2 7.0 Light rain. Mist.
2015-Feb-26 08:00 350 13 3.2 7.0 Light rain. Mist.
2015-Feb-26 07:30 340 13 2.7 7.0 Rain. Mist.
2015-Feb-26 07:16 340 12 2.7 7.0 Rain. Mist.
2015-Feb-26 07:00 340 13 3.2 7.0 Rain.
2015-Feb-26 06:38 340 13 2.7 7.0 Rain. Mist.
2015-Feb-26 06:30 340 12 2.7 7.0 Rain. Mist.
2015-Feb-26 06:00 340 12 2.4 7.0 Rain. Mist.
2015-Feb-26 05:42 340 10 2.4 7.0 Rain. Mist.
2015-Feb-26 05:30 340 11 2.4 7.0 Light rain. Mist.
2015-Feb-26 05:18 340 10 2.4 7.0 Light rain. Mist.
2015-Feb-26 05:00 340 8 2.4 7.0 Light rain. Mist.
2015-Feb-26 04:44 340 9 2.4 7.0 Light rain. Mist.
2015-Feb-26 04:30 340 9 2.7 7.0 Light rain. Mist.
2015-Feb-26 04:00 340 9 2.7 7.0 Light rain. Mist.
2015-Feb-26 03:30 340 9 2.7 7.0 Light rain. Mist.
2015-Feb-26 03:11 340 10 2.7 7.0 Light rain. Mist.
2015-Feb-26 03:00 340 11 3.2 7.0 Light rain.
2015-Feb-26 02:30 350 7 3.8 8.0 Light rain.
2015-Feb-26 02:00 360 8 4.3 7.0 Light rain.
2015-Feb-26 01:30 350 9 4.3 7.0 Light rain.
2015-Feb-26 01:00 360 10 4.3 7.0 Light rain.
2015-Feb-26 00:30 020 9 4.9 7.0 Light rain.
2015-Feb-26 00:11 010 8 4.9 7.0 Light rain.
2015-Feb-26 00:00 360 8 4.9 7.0 Light rain.
2015-Feb-25 23:30 010 9 4.3 7.0 Light rain.
2015-Feb-25 23:00 010 10 4.9 7.0 Light rain.
2015-Feb-25 22:30 360 11 5.4 8.0 Light rain.
2015-Feb-25 22:00 360 11 5.4 8.0
2015-Feb-25 21:30 010 11 5.4 8.0
2015-Feb-25 21:00 020 11 5.4 8.0